Baltimore, MD

8:25 PM EDT on August 21, 2017 (GMT -0400)
Baltimore-Washington International

Weather History for KBWI - June, 2012

Change the Weather History Date:

Monday, June 25, 2012

  Actual Average Record
Temperature  
Mean Temperature 77 °F 75 °F  
Max Temperature 88 °F 86 °F 99 °F (1997)
Min Temperature 66 °F 65 °F 53 °F (1979)
Degree Days  
Heating Degree Days 0 0  
Month to date heating degree days 6 13  
Since 1 June heating degree days 6 13  
Since 1 July heating degree days 3592 4762  
Cooling Degree Days 12 10  
Month to date cooling degree days 201 185  
Year to date cooling degree days 393 269  
Since 1 June cooling degree days 201 185  
Growing Degree Days 28 (Base 50)    
Moisture  
Dew Point 59 °F    
Average Humidity 58    
Maximum Humidity 90    
Minimum Humidity 26    
Precipitation  
Precipitation T in 0.10 in 2.75 in (2006)
Month to date precipitation 2.16 2.90  
Year to date precipitation 12.86 19.93  
Snow  
Snow 0.00 in 0.00 in - ()
Month to date snowfall 0.0 0.0  
Since 1 July snowfall 1.8 20.1  
Snow Depth 0.00 in    
Sea Level Pressure  
Sea Level Pressure 29.76 in    
Wind  
Wind Speed 9 mph (WNW)    
Max Wind Speed 20 mph    
Max Gust Speed 28 mph    
Visibility 10 miles    
Events Thunderstorm    
T = Trace of Precipitation, MM = Missing Value Source: NWS Daily Summary

Daily Weather History Graph

Daily Weather History Graph

Search for Another Location

Airport or City:

Trip Planner

Search our weather history database for the weather conditions in past years. The results will help you decide how hot, cold, wet, or windy it might be!

Date:

Astronomy

Jun. 25, 2012 Rise Set
Actual Time 5:41 AM EDT 8:36 PM EDT
Civil Twilight 5:09 AM EDT 9:09 PM EDT
Nautical Twilight 4:28 AM EDT 9:49 PM EDT
Astronomical Twilight 3:41 AM EDT 10:36 PM EDT
Moon 11:47 AM EDT (6/25) No Moon Set
Length of Visible Light 15h 59m
Length of Day
14h 55m
Waxing Crescent, 34% of the Moon is Illuminated
Jun 25
Waxing Crescent
Jun 26
First Quarter
Jul 3
Full
Jul 10
Last Quarter
Jul 19
New

Hourly Weather History & Observations

Time (EDT) Temp. Heat Index Dew Point Humidity Pressure Visibility Wind Dir Wind Speed Gust Speed Precip Events Conditions
12:54 AM 75.0 °F - 64.0 °F 69% 29.87 in 10.0 mi WSW 3.5 mph - N/A   Mostly Cloudy
1:54 AM 73.9 °F - 64.9 °F 73% 29.84 in 10.0 mi SW 3.5 mph - N/A   Scattered Clouds
2:07 AM 73.4 °F - 64.4 °F 73% 29.84 in 10.0 mi Calm Calm - N/A Thunderstorm Thunderstorm
2:54 AM 72.0 °F - 66.9 °F 84% 29.81 in 10.0 mi SSW 3.5 mph - 0.00 in Thunderstorm Thunderstorm
3:00 AM 71.6 °F - 66.2 °F 83% 29.80 in 10.0 mi SSW 3.5 mph - N/A   Scattered Clouds
3:54 AM 71.1 °F - 66.0 °F 84% 29.78 in 10.0 mi South 3.5 mph - N/A   Partly Cloudy
4:54 AM 70.0 °F - 66.0 °F 87% 29.77 in 10.0 mi WSW 4.6 mph - N/A   Scattered Clouds
5:54 AM 69.1 °F - 64.9 °F 87% 29.77 in 8.0 mi Calm Calm - N/A   Scattered Clouds
6:54 AM 71.1 °F - 66.9 °F 87% 29.77 in 9.0 mi Calm Calm - N/A   Mostly Cloudy
7:54 AM 75.9 °F - 68.0 °F 76% 29.75 in 8.0 mi SW 5.8 mph - N/A   Mostly Cloudy
8:54 AM 79.0 °F - 69.1 °F 72% 29.77 in 9.0 mi NW 9.2 mph - N/A   Mostly Cloudy
9:54 AM 79.0 °F - 66.9 °F 66% 29.75 in 10.0 mi West 9.2 mph - N/A   Mostly Cloudy
10:54 AM 80.1 °F 81.7 °F 64.0 °F 58% 29.73 in 10.0 mi WNW 9.2 mph - N/A   Mostly Cloudy
11:54 AM 77.0 °F - 64.0 °F 64% 29.73 in 10.0 mi WNW 9.2 mph - 0.00 in   Mostly Cloudy
12:54 PM 82.9 °F 84.0 °F 63.0 °F 51% 29.73 in 10.0 mi West 10.4 mph 19.6 mph N/A   Scattered Clouds
1:54 PM 87.1 °F 86.5 °F 59.0 °F 39% 29.70 in 10.0 mi NNW 13.8 mph 20.7 mph N/A   Scattered Clouds
2:54 PM 84.9 °F 83.3 °F 54.0 °F 34% 29.69 in 10.0 mi NW 13.8 mph 20.7 mph N/A   Scattered Clouds
3:54 PM 88.0 °F - 48.9 °F 26% 29.70 in 10.0 mi West 20.7 mph 25.3 mph N/A   Scattered Clouds
4:54 PM 84.9 °F - 51.1 °F 31% 29.70 in 10.0 mi NNW 17.3 mph 24.2 mph N/A   Scattered Clouds
5:54 PM 84.9 °F - 46.9 °F 27% 29.70 in 10.0 mi NNW 13.8 mph 20.7 mph N/A   Scattered Clouds
6:54 PM 82.0 °F - 48.9 °F 31% 29.72 in 10.0 mi NW 12.7 mph 20.7 mph N/A   Scattered Clouds
7:54 PM 78.1 °F - 48.0 °F 35% 29.73 in 10.0 mi NW 10.4 mph - N/A   Scattered Clouds
8:54 PM 73.9 °F - 46.0 °F 37% 29.75 in 10.0 mi NW 6.9 mph - N/A   Scattered Clouds
9:54 PM 72.0 °F - 44.1 °F 37% 29.77 in 10.0 mi NNW 8.1 mph - N/A   Scattered Clouds
10:54 PM 71.1 °F - 43.0 °F 36% 29.80 in 10.0 mi NNW 8.1 mph 16.1 mph N/A   Partly Cloudy
11:54 PM 69.1 °F - 44.1 °F 40% 29.82 in 10.0 mi North 9.2 mph 16.1 mph N/A   Clear